Temp
61 61 61 61 61 62 62 62 62 62 62 62 62 62 62 61 61 62 65 77 76 80 81 79 81 80 80 75 77 74 60 58 63 66 70 77 73 80 81 75 78 79 75 76 79
61 61 61 61 61 61 61 61 62 62 62 62 62 62 62 61 57 61 78 81 80 80 79 74 73 78 71 73 74 68 58 64 73 74 74 78 76 77 74 73 73 75 78 79 79
61 61 61 61 61 61 61 61 61 61 61 61 61 62 62 60 60 73 81 80 80 81 84 82 81 78 70 72 73 72 63 74 80 82 81 77 77 79 73 69 72 70 73 76 77
60 60 60 60 60 60 61 61 61 60 60 61 61 62 62 57 61 82 80 80 81 83 83 80 77 70 67 67 75 69 75 78 82 85 81 77 80 75 75 74 79 78 77 77 75
60 60 60 60 60 60 60 60 60 60 60 61 61 62 56 56 65 84 81 81 80 81 80 77 73 71 67 69 75 72 76 81 82 85 83 82 77 77 76 80 81 80 78 76 76
60 59 59 59 60 60 60 60 59 59 60 61 61 62 52 57 81 82 81 80 80 79 76 77 75 75 71 72 72 76 79 80 81 80 86 79 77 77 78 81 78 77 76 76 77
59 59 59 59 59 60 59 59 59 59 60 61 62 60 54 66 82 81 79 77 78 81 74 78 80 77 74 70 78 78 72 76 78 78 80 82 72 73 80 80 76 76 76 77 78
59 59 59 59 59 59 58 58 58 59 61 62 62 57 54 74 76 78 80 76 82 79 80 80 81 74 71 76 75 69 66 62 74 76 81 79 65 77 80 77 74 75 76 76 77
58 58 58 58 58 58 57 57 58 62 63 63 56 52 56 77 71 75 78 78 78 77 79 90 78 70 70 65 59 60 57 62 68 77 76 75 65 75 80 76 73 75 76 76 76
58 58 58 58 57 56 56 56 58 60 63 65 66 54 64 73 77 80 77 83 78 77 75 75 69 62 59 58 52 56 58 61 63 72 74 67 65 74 77 75 74 75 75 76 76
58 57 57 57 56 56 53 51 57 55 56 58 59 63 71 78 84 79 80 78 76 72 63 67 61 54 61 63 66 65 62 63 68 75 70 72 66 72 76 76 73 73 74 75 76
57 57 57 56 55 55 51 54 58 56 48 64 64 67 74 74 71 76 83 72 70 62 65 60 59 65 69 67 67 65 62 63 67 74 69 68 67 73 75 75 76 75 75 76 77
57 57 56 55 55 53 50 54 62 55 47 60 66 66 69 71 67 71 75 73 67 63 63 61 63 71 70 66 64 60 60 65 64 68 67 65 61 67 74 77 78 79 80 79 79
57 56 56 54 52 48 54 59 59 58 44 56 61 68 70 69 62 79 80 77 69 66 66 61 71 70 67 65 65 54 67 70 67 62 55 65 51 59 66 71 74 76 78 79 80
56 56 54 54 44 44 58 58 59 54 39 69 65 76 69 68 69 70 81 74 68 67 65 61 65 67 65 68 68 64 71 68 67 61 54 60 54 59 66 66 70 75 77 79 81
56 55 54 49 44 49 55 54 53 47 39 62 70 65 62 64 69 72 73 74 76 68 66 68 72 72 69 73 73 73 65 63 60 56 47 62 58 58 59 69 72 77 79 80 81
54 53 52 54 44 51 53 51 43 37 61 59 56 59 58 61 65 67 68 65 62 56 57 63 69 70 73 65 67 66 56 47 45 46 50 60 55 66 67 76 78 76 79 82 83
53 52 51 55 49 49 47 45 34 52 51 58 57 57 56 58 60 61 65 63 69 60 56 56 52 67 70 67 63 59 59 44 39 41 49 56 52 61 77 78 83 84 83 83 83
52 48 42 49 56 50 42 34 39 46 55 53 55 50 49 54 55 55 53 65 69 65 57 52 55 68 75 73 72 60 57 64 49 42 46 51 58 66 73 75 76 80 83 82 83
45 40 41 53 55 47 38 35 40 54 55 54 44 49 43 48 49 49 50 60 61 68 63 59 50 63 72 73 71 69 67 54 45 44 44 48 53 56 63 73 72 74 76 79 83
40 36 48 55 49 41 31 34 46 55 57 51 47 45 46 47 50 47 50 56 59 58 62 56 55 58 64 61 63 59 60 52 54 51 50 45 55 67 68 69 70 72 79 81 81
36 31 51 52 37 33 32 38 49 51 54 50 51 49 47 48 45 48 50 55 59 58 50 53 47 55 58 66 75 69 66 57 53 48 46 56 58 68 75 76 72 73 79 81 84
34 33 47 47 30 30 37 44 49 47 47 47 46 48 48 44 41 46 48 58 57 54 49 50 43 44 49 55 59 61 62 67 59 53 58 50 54 69 73 71 73 75 75 78 81
35 31 35 38 37 33 33 37 39 49 48 47 47 47 43 40 44 41 45 54 55 55 59 50 40 43 45 50 57 57 64 66 64 55 60 61 58 62 67 69 71 72 74 75 78
37 31 33 29 32 32 36 37 37 36 45 47 42 43 40 32 37 39 45 46 51 54 50 44 35 42 48 53 57 61 62 68 61 65 60 65 59 67 67 68 71 74 74 75 77
37 37 41 36 38 38 34 36 37 40 41 40 37 41 41 35 38 36 40 38 40 46 44 41 38 41 44 56 60 59 64 67 69 69 66 65 60 68 74 71 69 73 73 72 76
43 46 40 38 37 34 34 35 37 40 45 46 43 40 39 42 44 44 46 44 43 40 38 38 37 36 35 49 51 51 62 67 69 70 69 63 66 69 69 69 70 72 72 75 76
MSLP
1018.51 1018.03 1017.57 1017.10 1016.55 1016.02 1015.55 1015.10 1014.65 1014.16 1013.73 1013.29 1012.78 1012.22 1011.85 1011.46 1010.66 1010.05 1008.71 1005.66 1005.89 1006.42 1007.03 1007.92 1008.43 1008.64 1009.00 1008.94 1009.07 1008.90 1009.00 1008.25 1007.09 1006.54 1005.99 1005.94 1006.68 1007.44 1007.45 1007.95 1008.46 1008.70 1009.18 1010.26 1011.46
1018.45 1018.01 1017.55 1017.00 1016.42 1015.87 1015.33 1014.72 1014.26 1013.94 1013.52 1013.07 1012.59 1012.04 1011.71 1011.25 1010.55 1008.49 1003.94 1004.33 1004.85 1005.68 1006.77 1007.43 1007.87 1008.33 1008.72 1008.42 1008.62 1008.50 1008.03 1006.59 1005.70 1005.06 1005.04 1005.63 1006.20 1006.81 1007.49 1008.05 1008.64 1008.87 1009.54 1010.80 1011.50
1018.46 1017.93 1017.42 1016.89 1016.33 1015.72 1015.16 1014.60 1014.01 1013.52 1013.25 1012.89 1012.33 1011.84 1011.48 1011.18 1010.01 1005.15 1002.91 1003.36 1004.35 1004.97 1005.69 1006.57 1007.38 1007.77 1008.13 1007.89 1007.69 1007.16 1006.49 1005.22 1004.72 1004.67 1004.63 1005.28 1006.05 1006.76 1007.49 1008.13 1007.85 1008.45 1009.46 1010.57 1011.33
1018.38 1017.80 1017.24 1016.69 1016.10 1015.52 1014.93 1014.38 1013.82 1013.25 1012.74 1012.47 1012.09 1011.56 1011.22 1011.02 1008.09 1003.40 1002.85 1002.53 1003.93 1004.82 1005.46 1006.19 1006.99 1007.63 1007.62 1007.27 1006.60 1006.30 1005.01 1004.65 1003.71 1004.71 1004.97 1005.19 1005.59 1006.42 1006.64 1005.95 1006.95 1007.47 1008.32 1009.74 1010.91
1018.22 1017.62 1016.96 1016.29 1015.63 1014.94 1014.31 1013.79 1013.34 1012.78 1012.23 1011.86 1011.68 1011.35 1011.03 1010.03 1006.01 1002.82 1003.48 1003.96 1004.47 1004.93 1005.20 1005.73 1006.34 1006.94 1006.79 1006.23 1006.10 1005.79 1004.78 1004.15 1003.41 1003.33 1004.21 1004.75 1005.01 1005.30 1005.92 1006.11 1007.16 1007.83 1008.98 1009.63 1010.39
1017.97 1017.32 1016.61 1015.81 1015.05 1014.37 1013.58 1012.82 1012.24 1011.91 1011.55 1011.26 1011.17 1011.19 1010.93 1008.28 1003.19 1002.67 1003.14 1004.10 1004.30 1004.89 1005.14 1005.44 1005.56 1005.87 1006.14 1005.61 1005.36 1004.56 1004.18 1003.58 1002.98 1002.97 1003.46 1004.32 1004.86 1005.47 1006.23 1006.58 1007.65 1008.10 1008.64 1009.32 1009.90
1017.84 1017.02 1016.26 1015.48 1014.54 1013.54 1012.68 1012.01 1011.23 1010.47 1010.32 1010.29 1010.51 1010.76 1009.80 1004.54 1002.53 1002.49 1002.66 1003.25 1003.84 1003.94 1004.65 1004.78 1004.87 1005.35 1005.07 1005.25 1004.62 1004.04 1003.83 1003.17 1002.60 1002.04 1002.69 1003.15 1005.08 1004.43 1005.35 1006.31 1007.32 1007.85 1008.23 1008.99 1009.44
1017.72 1016.86 1015.97 1015.15 1014.21 1013.13 1011.88 1011.01 1010.39 1009.45 1008.70 1008.87 1009.73 1010.11 1007.77 1003.25 1002.94 1002.88 1002.50 1002.91 1003.17 1003.67 1003.68 1003.89 1004.36 1004.94 1005.09 1004.77 1004.35 1004.12 1003.90 1003.26 1002.06 1002.03 1002.13 1002.65 1003.76 1004.12 1005.20 1005.95 1007.06 1007.66 1008.28 1008.44 1008.96
1017.25 1016.41 1015.49 1014.60 1013.58 1012.51 1011.35 1010.19 1009.45 1008.73 1008.31 1008.72 1009.53 1009.36 1005.59 1002.67 1002.67 1001.68 1002.13 1002.33 1002.50 1003.15 1003.61 1003.86 1004.63 1004.93 1004.85 1005.22 1005.29 1004.78 1004.20 1003.49 1002.67 1001.71 1001.82 1002.40 1003.32 1003.85 1004.59 1005.55 1006.35 1007.28 1007.90 1008.09 1008.68
1017.23 1016.28 1015.29 1014.42 1013.25 1011.99 1010.68 1009.09 1008.89 1008.96 1008.89 1008.89 1008.53 1008.73 1004.15 1001.84 1001.05 1000.87 1001.11 1001.68 1002.17 1002.83 1003.83 1004.10 1004.51 1004.72 1004.98 1005.24 1005.19 1004.97 1004.35 1003.54 1002.98 1002.23 1002.14 1002.60 1003.09 1003.89 1004.60 1005.15 1005.71 1006.68 1007.42 1007.85 1008.08
1017.15 1016.27 1015.23 1014.10 1012.91 1011.92 1010.54 1009.60 1009.24 1009.06 1008.39 1007.02 1006.13 1004.75 1002.54 1001.23 1000.33 1000.28 1000.55 1001.46 1001.83 1002.58 1003.48 1003.63 1004.44 1004.14 1004.46 1004.70 1004.60 1004.42 1004.12 1003.51 1003.10 1002.21 1002.36 1002.65 1003.31 1003.65 1003.95 1004.98 1005.85 1006.31 1006.74 1007.05 1007.18
1017.04 1016.15 1015.24 1014.18 1012.62 1011.67 1011.27 1011.03 1011.45 1011.71 1008.90 1005.53 1003.91 1003.07 1001.54 1001.60 1001.31 1000.16 1000.07 1000.97 1001.83 1002.32 1002.82 1003.67 1002.96 1003.51 1003.94 1004.17 1004.29 1004.21 1004.02 1003.25 1002.81 1002.63 1002.86 1003.03 1003.24 1002.88 1003.53 1003.37 1003.81 1004.63 1005.77 1005.84 1006.41
1017.01 1016.15 1015.24 1014.12 1012.41 1011.90 1012.19 1011.16 1010.93 1011.03 1009.60 1003.63 1001.68 1000.76 1000.03 1001.02 1000.80 999.64 999.85 999.90 1000.75 1001.89 1002.05 1002.46 1002.41 1002.77 1003.21 1003.49 1003.84 1003.62 1003.54 1002.83 1002.92 1003.08 1002.92 1003.28 1003.31 1003.33 1003.57 1003.95 1004.44 1004.54 1004.34 1005.03 1005.37
1016.95 1016.02 1015.41 1014.53 1012.55 1012.93 1011.57 1010.72 1010.76 1010.52 1008.73 1002.88 1000.44 998.95 998.90 999.55 999.76 998.52 998.69 999.20 1000.05 1000.79 1001.82 1002.10 1001.67 1002.08 1002.37 1002.57 1002.94 1003.08 1002.70 1002.88 1003.25 1003.49 1003.62 1002.94 1003.73 1003.54 1003.20 1003.56 1003.58 1003.82 1003.81 1003.91 1004.43
1017.01 1015.96 1015.26 1015.23 1014.88 1013.83 1011.44 1010.59 1010.24 1009.94 1007.15 1000.49 999.08 998.00 998.23 998.41 997.66 997.38 997.72 998.49 998.99 999.71 1000.80 1000.60 1000.57 1001.08 1001.33 1001.10 1002.12 1002.22 1002.65 1002.98 1003.38 1003.82 1004.03 1003.73 1004.21 1002.86 1002.98 1003.28 1003.15 1002.75 1002.79 1002.94 1003.10
1016.89 1015.84 1015.15 1015.01 1015.04 1012.82 1011.89 1011.01 1010.22 1009.75 1005.17 1000.19 998.72 998.67 999.08 998.51 997.53 997.33 997.63 997.98 998.48 999.49 999.80 1000.03 999.66 999.99 1000.04 1000.73 1001.29 1001.97 1002.77 1003.36 1003.68 1004.28 1004.29 1003.12 1003.72 1002.15 1002.03 1001.54 1001.34 1001.33 1001.36 1001.37 1002.00
1016.68 1015.48 1014.66 1014.56 1013.61 1012.26 1012.08 1011.34 1010.81 1008.23 1003.36 1001.58 1000.65 1000.11 999.69 998.82 998.19 997.28 997.66 997.96 997.82 999.23 999.32 999.85 999.48 999.18 999.22 1000.30 1000.89 1001.62 1003.21 1004.69 1004.84 1004.74 1002.98 1002.69 1002.83 1000.83 999.87 999.44 999.48 999.58 999.49 999.83 1000.54
1016.68 1014.75 1013.75 1013.17 1012.68 1012.79 1012.51 1012.01 1010.24 1006.09 1004.25 1003.04 1002.33 1001.05 1000.62 1000.11 999.19 998.34 997.90 998.18 998.23 998.58 999.13 999.72 999.56 998.82 998.63 998.86 1000.02 1001.21 1002.15 1003.59 1004.43 1004.32 1003.20 1002.42 1000.91 998.68 998.06 997.74 997.74 997.88 997.87 998.64 999.45
1016.42 1014.44 1014.33 1012.96 1012.27 1012.74 1012.86 1011.44 1008.24 1006.43 1005.36 1004.51 1003.22 1002.72 1002.44 1001.89 1001.42 1000.19 999.65 998.86 998.29 998.60 999.18 999.58 999.09 997.71 997.40 997.96 998.83 1000.42 1001.21 1001.67 1003.52 1004.11 1003.56 1001.46 999.47 997.88 997.40 997.24 997.31 997.58 997.89 998.14 998.25
1017.28 1015.80 1014.53 1012.67 1012.50 1012.92 1013.05 1011.10 1008.98 1006.97 1006.17 1005.43 1005.17 1004.74 1004.43 1003.74 1003.06 1002.45 1001.52 1000.76 1000.11 999.46 999.02 999.04 999.16 997.92 997.03 997.45 998.06 998.37 999.87 1001.59 1002.95 1003.30 1002.87 1000.87 999.15 997.36 996.94 996.90 996.64 997.13 997.02 997.07 997.07
1017.44 1016.44 1013.49 1012.61 1012.47 1013.24 1013.32 1011.84 1009.65 1007.59 1007.24 1006.75 1006.27 1006.09 1005.66 1005.36 1004.67 1004.41 1003.29 1002.97 1002.22 1001.20 1000.51 999.98 999.60 998.44 997.67 997.15 997.17 998.16 998.87 1000.06 1000.97 1001.30 1001.02 1000.15 997.44 996.49 996.57 996.32 996.26 996.20 995.96 995.97 996.29
1018.27 1017.35 1013.44 1013.19 1013.94 1014.61 1014.32 1013.18 1010.80 1009.05 1007.98 1007.81 1007.18 1006.94 1007.00 1006.70 1006.20 1005.62 1004.77 1004.15 1004.19 1003.65 1003.31 1002.31 1001.09 999.54 998.01 996.34 995.81 996.71 997.57 998.95 999.66 999.70 999.51 998.73 996.73 995.21 994.83 995.01 995.55 995.61 995.13 994.65 994.77
1018.72 1017.65 1014.65 1014.23 1015.80 1015.93 1014.97 1013.22 1011.68 1010.61 1009.50 1008.81 1008.50 1008.32 1008.17 1008.05 1007.72 1007.05 1006.35 1005.69 1005.63 1005.29 1005.20 1004.68 1002.79 1001.31 999.18 997.85 996.77 996.56 996.70 997.08 997.36 998.03 997.42 997.81 996.36 995.10 995.09 995.13 994.88 994.78 994.40 993.98 993.98
1019.16 1018.65 1017.01 1016.34 1016.64 1016.66 1015.85 1014.30 1013.21 1011.93 1010.77 1010.27 1009.64 1009.25 1009.36 1009.24 1008.83 1008.43 1007.63 1006.89 1006.87 1006.40 1006.00 1005.43 1004.64 1003.09 1001.10 999.06 997.55 996.57 995.63 995.36 995.73 995.97 995.91 995.31 996.08 995.27 994.90 994.71 994.49 994.50 994.06 993.58 993.33
1019.23 1019.09 1018.81 1018.14 1017.44 1017.32 1016.44 1015.04 1013.92 1013.27 1012.36 1011.48 1010.59 1010.56 1010.61 1010.38 1010.07 1009.65 1009.14 1008.50 1007.64 1007.24 1007.02 1006.88 1006.31 1004.25 1002.38 1000.47 998.22 996.62 995.53 994.21 993.73 993.83 994.07 994.44 994.84 994.64 994.24 994.17 994.09 993.64 993.66 993.72 993.61
1019.17 1019.00 1018.63 1018.41 1017.79 1017.18 1016.49 1015.32 1014.51 1013.80 1013.25 1012.34 1012.06 1011.32 1011.19 1011.18 1010.89 1010.69 1010.20 1009.79 1009.28 1008.31 1008.14 1007.85 1006.96 1005.35 1003.02 1000.48 998.28 996.17 994.11 992.49 991.92 992.39 993.03 993.22 993.46 993.07 992.96 993.19 993.35 993.21 993.18 993.40 993.13
1018.72 1018.48 1018.47 1017.84 1017.42 1017.23 1016.39 1015.53 1015.02 1014.76 1013.25 1012.76 1012.24 1011.55 1011.19 1011.06 1011.03 1010.68 1010.35 1009.86 1009.48 1009.29 1009.19 1008.84 1007.73 1006.46 1003.87 1001.34 999.16 995.50 990.32 991.55 991.29 991.19 991.39 991.54 992.28 992.53 992.66 992.68 992.73 992.50 992.44 992.44 992.17
Wind_Speed
20 20 20 20 20 20 20 19 18 19 18 18 19 19 18 17 18 3 9 14 12 21 16 17 12 12 15 7 5 1 1 3 6 5 5 10 6 10 3 12 5 4 8 16 21
21 21 21 21 21 21 21 21 20 19 19 19 19 19 17 17 4 10 20 14 17 24 16 17 13 15 6 5 4 4 2 7 7 5 13 16 15 17 7 14 2 10 15 20 20
21 22 22 22 22 22 22 21 22 21 19 18 18 18 16 12 5 10 2 19 20 22 12 15 13 12 5 3 7 6 7 2 7 3 16 16 13 5 16 7 8 24 22 22 22
23 23 24 24 24 23 23 22 22 21 20 18 16 16 15 2 6 1 10 18 20 17 9 8 6 8 8 10 8 6 8 12 18 6 12 16 12 6 19 7 21 26 27 25 23
24 24 24 25 25 25 25 24 22 22 21 19 14 12 4 2 14 7 15 15 14 9 10 9 7 8 7 6 8 14 14 13 20 15 15 16 19 15 22 9 19 21 23 24 21
24 24 24 25 26 26 26 25 23 23 21 18 12 5 2 9 6 9 5 14 12 10 7 7 9 8 4 6 6 6 12 12 10 10 16 19 17 10 16 18 19 22 24 22 21
24 25 26 27 28 29 29 27 27 28 24 17 11 6 3 19 3 4 6 7 9 11 8 8 7 8 5 5 6 5 5 6 8 7 11 22 9 19 16 22 23 23 22 21 21
23 25 26 27 28 29 31 30 29 29 19 7 14 6 11 7 7 14 7 6 8 7 5 8 9 7 4 3 7 2 2 3 4 5 9 17 16 19 20 24 23 23 20 21 21
25 26 28 29 30 31 32 33 28 11 8 17 9 4 12 4 3 9 8 8 9 4 5 6 6 6 3 4 4 4 5 6 7 6 6 9 7 12 24 24 23 22 20 20 17
25 27 29 29 31 33 35 27 7 1 7 7 2 1 6 5 4 5 8 10 5 6 1 6 4 5 2 5 8 5 4 5 4 5 8 3 3 18 21 22 23 22 20 19 19
25 26 28 31 32 33 18 6 5 3 2 8 6 6 6 6 5 5 6 9 1 6 8 6 5 9 10 7 6 4 3 6 5 3 4 14 6 18 22 19 20 20 19 20 22
25 26 27 30 34 29 4 5 7 3 16 18 24 23 25 5 6 4 11 9 8 8 6 3 14 8 9 8 8 6 7 13 2 7 6 7 12 20 23 28 27 24 22 23 20
25 26 27 28 35 5 5 3 4 5 6 9 9 9 7 20 12 12 6 7 6 9 9 11 6 10 9 7 7 5 9 11 8 1 1 6 3 10 18 14 16 19 22 22 23
26 27 25 29 6 7 6 6 8 4 4 11 6 9 6 8 9 14 12 12 5 18 8 7 10 10 9 8 10 9 6 10 3 4 4 3 5 4 8 19 19 19 21 22 22
26 28 26 13 5 5 8 15 14 2 7 3 4 2 6 10 2 11 8 5 11 9 10 10 14 17 13 18 8 10 5 7 4 5 1 4 0 7 10 15 19 21 21 22 22
26 27 25 3 2 11 13 14 2 4 12 6 3 3 4 4 5 6 13 1 6 5 4 11 5 14 11 9 13 5 2 4 4 4 4 16 9 8 9 23 23 21 23 25 23
26 28 21 5 6 4 9 5 4 7 6 5 5 5 3 4 4 4 16 14 11 11 15 6 19 5 7 8 6 6 8 4 4 5 11 9 6 15 10 25 25 26 27 27 25
25 31 3 7 5 3 3 4 7 4 6 5 7 10 3 10 3 7 12 18 16 4 6 11 6 15 5 10 11 8 11 8 8 5 7 5 10 9 17 13 27 25 27 23 23
23 6 5 5 6 3 3 4 9 5 3 8 7 6 6 6 8 8 6 16 18 11 10 9 11 3 15 7 16 7 11 13 3 2 3 6 8 6 8 12 9 16 17 21 24
6 5 6 5 3 4 4 5 5 4 6 6 3 4 5 8 7 9 6 4 10 3 5 8 2 8 12 7 8 15 9 4 2 11 12 5 7 6 7 16 10 10 15 18 21
4 6 6 8 3 4 3 7 6 10 6 7 4 5 2 5 4 4 5 6 12 12 10 2 4 5 6 9 19 6 9 3 7 8 10 6 12 9 10 10 11 11 17 19 19
3 5 5 6 7 3 5 13 12 12 8 3 4 3 3 5 4 3 6 7 15 11 7 6 3 14 13 8 20 14 17 9 6 11 6 8 14 1 15 16 11 11 16 20 21
4 4 6 3 5 4 7 8 10 13 7 5 5 5 6 4 3 3 6 7 17 12 6 8 5 1 7 5 1 9 9 20 9 4 21 8 8 5 10 7 8 10 10 12 15
3 6 5 5 2 3 5 5 11 12 10 9 3 3 4 4 5 5 6 3 14 11 10 2 4 3 7 6 1 9 12 15 17 11 15 17 8 5 7 11 8 9 10 9 9
0 4 2 5 5 5 7 5 6 8 6 10 4 7 3 1 2 2 4 8 10 9 6 5 3 4 7 16 19 15 13 23 20 21 17 17 13 16 11 12 11 11 8 7 9
2 2 0 3 4 7 5 4 4 6 5 8 7 12 7 4 4 5 3 2 5 7 7 5 4 6 7 11 13 18 19 25 24 22 16 12 9 9 14 9 6 11 9 10 13
2 2 2 3 4 3 3 3 6 13 8 5 8 11 7 3 5 9 10 7 6 3 2 2 1 5 7 9 15 12 29 22 20 15 18 20 10 8 10 9 12 12 11 11 12
Wind_Direction
350 348 346 342 339 336 333 330 329 328 326 324 323 320 323 322 315 183 238 215 178 158 145 153 175 173 170 200 192 214 248 226 221 153 195 147 132 159 108 133 164 168 140 153 159
347 344 342 339 336 333 330 328 326 325 324 322 321 319 323 328 291 244 242 193 169 157 147 164 170 168 187 208 202 196 212 234 180 181 169 165 164 169 135 156 102 103 120 150 159
344 342 340 337 334 330 327 324 322 320 318 318 317 318 321 326 305 250 196 198 170 165 152 165 162 167 212 192 203 205 223 259 275 334 163 167 177 166 150 185 187 152 152 162 164
344 341 338 335 332 328 323 320 317 315 312 312 314 315 317 252 279 289 27 153 160 170 147 156 151 171 188 210 203 271 252 256 276 168 179 183 162 181 185 195 167 160 160 160 172
341 337 333 330 329 328 323 317 313 309 306 306 308 311 344 226 245 275 85 120 141 160 170 169 173 180 203 214 190 219 251 248 253 262 194 177 185 186 203 145 159 154 162 169 171
336 334 331 329 328 326 321 317 311 306 301 296 289 284 195 243 232 233 236 151 159 167 176 164 195 192 240 233 187 212 234 249 251 231 197 180 200 161 207 150 160 166 170 175 179
334 332 330 329 327 324 321 316 313 308 300 281 243 194 220 237 230 152 125 166 160 180 158 198 200 184 174 297 249 238 254 282 233 240 178 177 201 212 175 161 168 176 175 179 189
334 331 329 328 325 322 319 317 313 308 299 234 177 165 245 243 252 261 267 295 189 202 200 180 182 194 214 292 347 261 128 281 296 130 196 161 206 204 167 166 176 178 184 183 189
333 332 330 328 326 322 319 315 312 318 92 134 136 166 262 275 210 230 164 212 163 167 220 208 122 205 181 160 356 346 232 230 325 236 143 181 177 178 170 175 177 183 186 188 190
332 331 329 329 327 323 322 312 276 78 125 176 169 329 256 229 199 201 189 173 156 172 167 192 179 170 84 129 208 208 221 240 169 322 176 153 184 168 174 174 183 185 188 193 196
333 331 329 330 327 326 331 350 12 347 256 223 200 261 288 267 291 209 165 132 161 129 169 181 173 203 208 187 198 194 246 263 109 294 130 212 175 178 183 185 186 192 193 196 204
334 331 330 330 324 326 333 46 71 307 294 246 249 244 247 54 315 250 138 138 158 186 156 177 221 192 197 191 212 214 227 260 9 220 161 232 226 195 181 196 192 185 196 201 206
333 332 332 335 321 9 312 226 25 338 255 274 218 238 203 186 214 248 172 150 144 172 195 208 227 169 179 190 191 221 207 245 233 14 353 145 311 154 203 199 204 204 198 201 201
332 330 334 340 8 332 287 313 337 275 308 275 237 256 148 123 228 214 188 167 168 197 182 223 231 197 197 210 179 233 198 259 253 63 239 133 273 225 174 208 207 209 204 202 206
331 327 329 338 275 316 288 328 324 96 315 227 189 103 151 177 151 206 160 149 186 173 149 222 185 202 213 217 164 240 196 237 170 198 197 205 341 254 167 208 219 212 212 210 206
325 320 325 357 241 250 302 300 360 51 248 296 84 88 106 282 289 100 181 135 145 162 218 208 213 192 197 199 197 185 251 359 30 131 230 246 168 248 183 203 212 217 215 208 205
321 317 320 281 249 294 336 349 63 207 326 349 348 341 294 217 240 181 174 187 169 175 213 167 229 207 152 183 189 129 111 270 283 207 236 198 193 229 204 207 207 206 215 208 205
321 308 317 247 255 280 347 63 206 230 270 14 334 297 68 353 9 329 174 192 220 132 153 194 225 200 169 182 189 187 177 161 197 205 244 169 223 233 215 210 214 210 215 208 205
326 302 331 277 306 106 60 197 205 203 10 346 332 36 350 3 5 13 14 216 200 178 173 176 236 200 195 187 175 190 190 195 135 200 15 238 265 294 213 230 204 215 216 208 208
319 316 286 290 346 73 62 272 284 334 8 2 11 21 344 345 5 24 346 340 356 297 245 206 203 221 205 168 214 195 163 168 348 215 241 260 247 228 193 225 228 191 196 207 212
8 343 261 326 78 69 195 244 297 302 1 355 336 316 274 319 5 18 283 51 10 343 336 280 237 228 138 192 199 193 198 187 151 173 223 232 258 182 208 213 210 209 214 213 213
18 332 293 4 46 12 9 319 322 306 2 310 312 317 310 19 324 231 250 33 27 6 21 329 262 238 212 218 201 203 211 175 188 227 249 229 236 7 198 208 193 213 222 225 218
321 268 309 55 58 348 312 316 341 357 327 9 336 29 18 6 331 50 326 37 16 16 19 341 309 298 333 303 328 213 190 199 204 152 230 207 252 232 182 221 223 222 235 233 216
12 330 324 33 133 4 336 310 350 337 319 344 303 48 46 10 31 328 309 26 346 334 6 45 295 235 257 269 127 206 228 213 204 221 232 229 233 220 208 213 210 223 245 228 202
83 263 200 317 346 327 323 274 348 3 333 328 348 60 20 4 282 121 2 330 332 358 16 83 253 281 311 295 291 262 261 227 212 216 212 229 198 230 212 206 215 212 217 220 216
274 300 330 266 258 307 311 310 287 342 333 313 328 320 310 231 216 288 275 184 243 327 355 350 279 343 294 258 265 265 254 252 227 215 228 231 215 213 224 229 243 227 211 205 212
243 255 242 272 283 282 243 275 308 315 287 233 294 299 303 248 289 256 247 216 212 182 292 282 264 13 286 316 321 273 236 246 247 220 192 221 197 193 251 216 222 231 222 201 201